Terug naar catalogus

STARLINK-31598

ActiefCommunicatieVLEO
NORAD 59263·PAYLOAD·🇺🇸 United States

Gelanceerd Mar 19, 2024 vanaf Vandenberg Space Force Base

Loading…

Volgende Passages (komende 24 uur)

TLE

VersSource: CelesTrak SupGP

Epoch: Sep 15, 2026, 03:07 UTC

1 59263C 24050K   26258.13034722  .00045014  00000+0  13304-2 0  2585
2 59263  53.1591  18.5038 0001272  95.6010  82.2786 15.34357027    10

Volg STARLINK-31598 in realtime met AllMySat

Download on the App Store